Location: Cicognara
(44.9500°N, 10.4667°E)
Time: 23:41:05
(UTC+00:00)

Cosmos 1331 Rocket - Pass Details

Date: 20 June 2021
Orbit: 749 x 778 km, 74.0° (Epoch: 23 July)

Event Time Altitude Azimuth Distance (km) Brightness Sun altitude
Rises 20:28:34 0° 203° (SSW) 3,213 7.0 -11.3°
Reaches altitude 10° 20:30:56 10° 205° (SSW) 2,296 6.2 -11.5°
Maximum altitude 20:36:09 78° 292° (WNW) 792 4.2 -12.1°
Drops below altitude 10° 20:41:27 10° 19° (NNE) 2,330 7.0 -12.7°
Sets 20:43:52 0° 21° (NNE) 3,265 7.7 -12.9°
